Regional Weather Roundup
Issued by NWS

Home | Current Version | Previous Version | Graphics & Text | Print | Product List | Glossary On
Versions: 1 2 3 4 5 6 7 8 9 10 11 12 13 14 15 16 17 18 19 20 21 22 23 24 25 26 27 28 29 30 31 32 33 34 35 36 37 38 39 40 41 42 43 44 45 46 47 48 49 50
000
ASUS43 KLSX 220707
RWRMO

WEATHER SUMMARY FOR MISSOURI
NATIONAL WEATHER SERVICE SPRINGFIELD MO
200 AM CDT MON SEP 22 2014

NOTE: "FAIR" INDICATES FEW OR NO CLOUDS BELOW 12,000 FEET WITH NO
       SIGNIFICANT WEATHER AND/OR OBSTRUCTIONS TO VISIBILITY.
       CURRENT SKY AND/OR WEATHER CONDITIONS ARE NOT AVAILABLE FOR
       CHILLICOTHE AND FARMINGTON.

MOZ001>031-035>038-043-044-053-054-220800-
...NORTHERN AND WESTERN MISSOURI...

CITY           SKY/WX    TMP DP  RH WIND       PRES   REMARKS
KANSAS CTY INT CLEAR     56  49  77 N3        30.27R
KANSAS C DTWN  CLEAR     57  51  80 N3        30.26R
LEE`S SUMMIT   CLEAR     53  49  86 CALM      30.27R
ST JOSEPH      CLEAR     48  47  96 CALM      30.28R
CHILLICOTHE      N/A     52  49  89 CALM      30.26S
KIRKSVILLE     CLEAR     53  48  83 N5        30.24S

$$
MOZ066>068-077>081-088>096-101>105-220800-
...SOUTHWEST MISSOURI...

CITY           SKY/WX    TMP DP  RH WIND       PRES   REMARKS
SPRINGFIELD    CLEAR     55  49  80 N5        30.22S
JOPLIN         CLEAR     56  51  84 NE3       30.24S

$$
MOZ032>034-039>042-045>050-055>058-069>072-220800-
...CENTRAL MISSOURI...

CITY           SKY/WX    TMP DP  RH WIND       PRES   REMARKS
COLUMBIA       CLEAR     53  50  89 N5        30.23R
JEFFERSON CITY CLEAR     55  50  83 NW5       30.22R
ROLLA          CLEAR     52  48  86 N3        30.20S
SEDALIA        CLEAR     55  49  80 NW3       30.25R
WHITEMAN AFB   CLEAR     54  49  85 N2        30.24R
OSAGE BEACH    CLEAR     55  46  71 N3        30.23R

$$
MOZ051-052-059>065-220800-
...EAST CENTRAL MISSOURI...

CITY           SKY/WX    TMP DP  RH WIND       PRES   REMARKS
ST LOUIS INTL  CLEAR     56  50  80 NW3       30.19S
SPIRIT OF STL  CLEAR     52  50  93 CALM      30.18S
ST CHARLES     CLEAR     58  50  75 N8        30.18R

$$
MOZ072>076-082>087-097>100-106>115-220800-
...SOUTH CENTRAL AND SOUTHEAST MISSOURI...

CITY           SKY/WX    TMP DP  RH WIND       PRES   REMARKS
CAPE GIRARDEAU CLEAR     53  50  89 W3        30.15S
FARMINGTON     CLEAR     55  48  76 NW3       30.21R
POPLAR BLUFF   CLEAR     58  50  75 N6        30.15R
WEST PLAINS    CLEAR     55  47  74 N5        30.21S

$$


USA.gov is the U.S. government's official web portal to all federal, state and local government web resources and services.